Regional Weather Roundup
Issued by NWS Albany, NY

Home | Current Version | Previous Version | Text Only | Print | Product List | Glossary On
Versions: 1 2 3 4 5 6 7 8 9 10 11 12 13 14 15 16 17 18 19 20 21 22 23 24 25 26 27 28 29 30 31 32 33 34 35 36 37 38 39 40 41 42 43 44 45 46 47 48 49 50
000
ASUS41 KALY 150610
RWRALY

NEW YORK STATE HOURLY WEATHER ROUNDUP
NATIONAL WEATHER SERVICE ALBANY NY
200 AM EDT TUE OCT 15 2019

NOTE: "FAIR" INDICATES FEW OR NO CLOUDS BELOW 12,000 FEET WITH NO
SIGNIFICANT WEATHER AND/OR NO OBSTRUCTIONS TO VISIBILITY.

NYZ032-033-038>043-046>054-057>066-NYZ062>081-082-084-150700-
EAST


CITY           SKY/WX    TMP DP  RH WIND       PRES   REMARKS
ALBANY         FAIR      47  37  68 W3        30.10R
GLENS FALLS      N/A    N/A N/A N/A MISG      30.08R
POUGHKEEPSIE   FAIR      44  40  85 CALM      30.09R
NEWBURGH       CLEAR     46  43  87 CALM      30.10R
MONTGOMERY     FAIR      42  39  89 CALM      30.09R
WHITE PLAINS   FAIR      49  41  74 NW6       30.08R
ISLIP          FAIR      54  46  74 N12       30.07R
NEW YORK CITY  FAIR      58  43  57 N9        30.08R
CENTRAL PARK   FAIR      57  42  57 N6        30.11R
$$

NYZ005>009-017-018-044>046-055-056-150700-
CENTRAL


CITY           SKY/WX    TMP DP  RH WIND       PRES   REMARKS
FULTON         FAIR      41  36  82 VRB5      30.10R
SYRACUSE       FAIR      42  37  82 W5        30.10R
ROME             N/A     39  38  96 CALM      30.11S
ELMIRA         MOCLDY    43  40  89 CALM      30.11S
BINGHAMTON     FAIR      40  37  89 SW3       30.09S
MONTICELLO     FAIR      42  36  79 W6        30.10R
$$

NYZ026>034-041>043-087-150700-
NORTH


CITY           SKY/WX    TMP DP  RH WIND       PRES   REMARKS
WATERTOWN      CLOUDY    42  38  85 CALM      30.08S
FORT DRUM      NOT AVBL
OGDENSBURG     FAIR      43  34  70 SW3       30.04S
MASSENA        FAIR      36  32  85 CALM      30.07R
SARANAC LAKE   CLOUDY    39  34  82 SW6       30.03R WCI  35
PLATTSBURGH    MOCLDY    48  34  58 W3        30.04R
$$

NYZ001>004-010>016-019>021-085-150700-
WEST


CITY           SKY/WX    TMP DP  RH WIND       PRES   REMARKS
NIAGARA FALLS  MOCLDY    39  33  79 CALM        N/A
BUFFALO        MOCLDY    44  36  73 SW3       30.11R
DUNKIRK        CLOUDY    51  34  52 W9        30.12R
JAMESTOWN      CLOUDY    41  39  93 W6        30.12R
WELLSVILLE     MOCLDY    40  37  89 SW3       30.11R
ROCHESTER      CLOUDY    45  41  86 SW6       30.12R
PENN YAN       CLOUDY    46  39  76 VRB6      30.12R
$$

             KEY
       WCI = WIND CHILL INDEX
       VSB = VISIBILITY
       HX  = HEAT INDEX
$$



USA.gov is the U.S. government's official web portal to all federal, state and local government web resources and services.